TimeEDT,TemperatureF,Dew PointF,Humidity,Sea Level PressureIn,VisibilityMPH,Wind Direction,Wind SpeedMPH,Gust SpeedMPH,PrecipitationIn,Events,Conditions,WindDirDegrees,DateUTC
12:01 AM,71.6,71.6,100,30.12,0.8,Calm,Calm,-,N/A,,Mostly Cloudy,0,2013-08-12 04:01:00
12:15 AM,73.4,71.6,94,30.12,2.0,Calm,Calm,-,N/A,,Mostly Cloudy,0,2013-08-12 04:15:00
12:38 AM,73.4,71.6,94,30.13,1.5,Calm,Calm,-,N/A,,Mostly Cloudy,0,2013-08-12 04:38:00
12:41 AM,73.4,71.6,94,30.13,0.8,Calm,Calm,-,N/A,,Mostly Cloudy,0,2013-08-12 04:41:00
12:53 AM,73.0,72.0,96,30.09,0.2,Calm,Calm,-,N/A,Fog,Fog,0,2013-08-12 04:53:00
1:23 AM,73.4,71.6,94,30.13,2.0,Calm,Calm,-,N/A,,Overcast,0,2013-08-12 05:23:00
1:34 AM,73.4,71.6,94,30.12,0.8,Calm,Calm,-,N/A,,Overcast,0,2013-08-12 05:34:00
1:40 AM,71.6,71.6,100,30.12,0.2,Calm,Calm,-,N/A,Fog,Fog,0,2013-08-12 05:40:00
1:53 AM,72.0,71.1,97,30.08,0.2,Calm,Calm,-,N/A,Fog,Fog,0,2013-08-12 05:53:00
2:53 AM,71.1,70.0,96,30.09,0.2,Calm,Calm,-,N/A,Fog,Fog,0,2013-08-12 06:53:00
3:53 AM,70.0,69.1,97,30.08,0.2,Calm,Calm,-,N/A,Fog,Fog,0,2013-08-12 07:53:00
4:27 AM,69.8,69.8,100,30.12,0.2,Calm,Calm,-,N/A,Fog,Fog,0,2013-08-12 08:27:00
4:48 AM,69.8,69.8,100,30.12,0.2,Calm,Calm,-,N/A,Fog,Fog,0,2013-08-12 08:48:00
4:53 AM,70.0,70.0,100,30.08,0.2,Calm,Calm,-,N/A,Fog,Fog,0,2013-08-12 08:53:00
5:53 AM,70.0,69.1,97,30.08,0.2,Calm,Calm,-,N/A,Fog,Fog,0,2013-08-12 09:53:00
6:53 AM,69.1,68.0,96,30.08,0.2,Calm,Calm,-,N/A,Fog,Fog,0,2013-08-12 10:53:00
7:53 AM,70.0,69.1,97,30.08,0.2,South,3.5,-,N/A,Fog,Fog,180,2013-08-12 11:53:00
8:53 AM,70.0,70.0,100,30.07,0.2,Calm,Calm,-,N/A,Fog,Fog,0,2013-08-12 12:53:00
9:53 AM,71.1,70.0,96,30.08,0.2,Calm,Calm,-,N/A,Fog,Fog,0,2013-08-12 13:53:00
10:16 AM,71.6,69.8,94,30.12,1.2,Calm,Calm,-,N/A,,Overcast,0,2013-08-12 14:16:00
10:24 AM,71.6,69.8,94,30.12,2.0,Calm,Calm,-,N/A,,Overcast,0,2013-08-12 14:24:00
10:44 AM,73.4,71.6,94,30.11,3.0,Calm,Calm,-,N/A,,Overcast,0,2013-08-12 14:44:00
10:53 AM,73.0,71.1,93,30.07,4.0,SSE,3.5,-,N/A,,Overcast,160,2013-08-12 14:53:00
11:04 AM,73.4,69.8,88,30.11,5.0,Variable,4.6,-,N/A,,Overcast,0,2013-08-12 15:04:00
11:21 AM,75.2,71.6,89,30.11,5.0,Calm,Calm,-,N/A,,Mostly Cloudy,0,2013-08-12 15:21:00
11:53 AM,77.0,72.0,84,30.07,6.0,Calm,Calm,-,N/A,,Haze,0,2013-08-12 15:53:00
12:53 PM,77.0,71.1,82,30.05,6.0,Calm,Calm,-,N/A,,Haze,0,2013-08-12 16:53:00
1:06 PM,77.0,71.6,83,30.09,6.0,Calm,Calm,-,N/A,,Haze,0,2013-08-12 17:06:00
1:32 PM,77.0,71.6,83,30.09,6.0,Calm,Calm,-,0.00,Rain,Light Rain,0,2013-08-12 17:32:00
1:53 PM,77.0,72.0,84,30.03,5.0,Calm,Calm,-,0.00,,Haze,0,2013-08-12 17:53:00
2:02 PM,75.2,71.6,89,30.07,4.0,Calm,Calm,-,N/A,Thunderstorm,Mostly Cloudy,0,2013-08-12 18:02:00
2:05 PM,75.2,71.6,89,30.08,1.5,Calm,Calm,-,0.00,Rain-Thunderstorm,Light Thunderstorms and Rain,0,2013-08-12 18:05:00
2:11 PM,73.4,71.6,94,30.08,0.5,Calm,Calm,-,0.09,Fog-Rain-Thunderstorm,Heavy Thunderstorms and Rain,0,2013-08-12 18:11:00
2:36 PM,73.4,71.6,94,30.06,0.8,Calm,Calm,-,0.43,Rain,Light Rain,0,2013-08-12 18:36:00
2:43 PM,73.4,71.6,94,30.06,1.5,Calm,Calm,-,0.43,Rain,Light Rain,0,2013-08-12 18:43:00
2:46 PM,73.4,71.6,94,30.06,2.5,Calm,Calm,-,0.43,Rain,Light Rain,0,2013-08-12 18:46:00
2:53 PM,75.0,72.0,90,30.01,7.0,Calm,Calm,-,0.43,,Mostly Cloudy,0,2013-08-12 18:53:00
3:02 PM,75.2,71.6,89,30.05,9.0,Calm,Calm,-,N/A,Thunderstorm,Mostly Cloudy,0,2013-08-12 19:02:00
3:19 PM,75.2,73.4,94,30.05,3.0,Calm,Calm,-,N/A,Thunderstorm,Overcast,0,2013-08-12 19:19:00
3:24 PM,75.2,71.6,89,30.06,1.8,NW,4.6,-,0.00,Rain-Thunderstorm,Thunderstorms and Rain,320,2013-08-12 19:24:00
3:28 PM,73.4,71.6,94,30.07,0.8,North,10.4,23.0,0.01,Rain-Thunderstorm,Heavy Thunderstorms and Rain,350,2013-08-12 19:28:00
3:35 PM,69.8,66.2,88,30.07,0.2,Variable,4.6,23.0,0.37,Fog-Rain-Thunderstorm,Heavy Thunderstorms and Rain,0,2013-08-12 19:35:00
3:53 PM,66.9,66.9,100,30.01,0.5,Calm,Calm,-,1.21,Fog-Rain-Thunderstorm,Heavy Thunderstorms and Rain,0,2013-08-12 19:53:00
4:05 PM,68.0,66.2,94,30.05,1.0,Calm,Calm,-,0.09,Rain-Thunderstorm,Light Rain,0,2013-08-12 20:05:00
4:13 PM,68.0,66.2,94,30.05,1.0,Calm,Calm,-,0.12,Rain,Heavy Rain,0,2013-08-12 20:13:00
4:20 PM,68.0,66.2,94,30.05,0.8,South,3.5,-,0.24,Rain,Heavy Rain,170,2013-08-12 20:20:00
4:31 PM,68.0,68.0,100,30.04,1.2,Calm,Calm,-,0.31,Rain,Rain,0,2013-08-12 20:31:00
4:34 PM,68.0,68.0,100,30.04,2.5,Calm,Calm,-,0.32,Rain,Rain,0,2013-08-12 20:34:00
4:41 PM,69.8,68.0,94,30.05,3.0,West,3.5,-,0.33,Rain,Light Rain,260,2013-08-12 20:41:00
4:43 PM,69.8,68.0,94,30.05,1.8,West,4.6,-,0.33,Rain,Rain,270,2013-08-12 20:43:00
4:45 PM,68.0,68.0,100,30.05,0.8,West,3.5,-,0.33,Rain,Rain,280,2013-08-12 20:45:00
4:53 PM,68.0,66.9,96,30.00,0.2,Calm,Calm,-,0.56,Fog-Rain,Heavy Rain,0,2013-08-12 20:53:00
5:01 PM,69.8,66.2,88,30.03,2.0,Calm,Calm,-,0.04,Rain,Light Rain,0,2013-08-12 21:01:00
5:12 PM,69.8,69.8,100,30.03,1.5,Calm,Calm,-,0.04,Rain,Light Rain,0,2013-08-12 21:12:00
5:20 PM,71.6,69.8,94,30.03,2.0,Variable,3.5,-,0.04,Rain,Light Rain,0,2013-08-12 21:20:00
5:25 PM,71.6,69.8,94,30.03,3.0,Calm,Calm,-,0.04,,Mostly Cloudy,0,2013-08-12 21:25:00
5:35 PM,71.6,69.8,94,30.03,9.0,Calm,Calm,-,0.05,,Mostly Cloudy,0,2013-08-12 21:35:00
5:53 PM,72.0,69.1,91,29.99,7.0,Calm,Calm,-,0.05,,Mostly Cloudy,0,2013-08-12 21:53:00
6:53 PM,72.0,69.1,91,29.96,10.0,ESE,3.5,-,0.00,,Scattered Clouds,110,2013-08-12 22:53:00
7:53 PM,72.0,70.0,93,29.96,9.0,SSE,3.5,-,N/A,,Mostly Cloudy,150,2013-08-12 23:53:00
8:53 PM,72.0,71.1,97,29.96,4.0,Calm,Calm,-,N/A,,Mostly Cloudy,0,2013-08-13 00:53:00
9:53 PM,72.0,71.1,97,29.94,8.0,Calm,Calm,-,N/A,,Overcast,0,2013-08-13 01:53:00
10:06 PM,73.4,71.6,94,29.98,10.0,Calm,Calm,-,N/A,,Overcast,0,2013-08-13 02:06:00
10:35 PM,71.6,71.6,100,29.98,9.0,Calm,Calm,-,N/A,,Mostly Cloudy,0,2013-08-13 02:35:00
10:53 PM,72.0,71.1,97,29.94,7.0,Calm,Calm,-,N/A,,Mostly Cloudy,0,2013-08-13 02:53:00
11:18 PM,71.6,71.6,100,29.97,6.0,Variable,3.5,-,0.00,Rain-Thunderstorm,Light Rain,0,2013-08-13 03:18:00
11:34 PM,71.6,71.6,100,29.98,2.0,Variable,3.5,-,0.04,Rain-Thunderstorm,Rain,0,2013-08-13 03:34:00
11:38 PM,71.6,71.6,100,29.99,1.5,Calm,Calm,-,0.06,Rain-Thunderstorm,Rain,0,2013-08-13 03:38:00
11:44 PM,71.6,71.6,100,29.99,0.8,Calm,Calm,-,0.06,Rain-Thunderstorm,Light Rain,0,2013-08-13 03:44:00
11:53 PM,71.1,70.0,96,29.96,1.0,Variable,4.6,-,0.09,Rain,Light Rain,0,2013-08-13 03:53:00
11:56 PM,71.6,69.8,94,30.00,1.8,Variable,3.5,-,0.00,Rain,Light Rain,0,2013-08-13 03:56:00
11:58 PM,71.6,69.8,94,30.00,2.0,Variable,4.6,-,0.00,Rain,Light Rain,0,2013-08-13 03:58:00